Вернуться в каталог

STARLINK-37611

АктивенСвязьSSO
NORAD 69034·PAYLOAD·🇺🇸 United States

Запущен May 6, 2026 с Vandenberg Space Force Base

Loading…

Ближайшие Пролёты (ближайшие 24 часа)

TLE

СвежийSource: CelesTrak SupGP

Эпоха: Sep 15, 2026, 04:08 UTC

1 69034C 26101K   26258.17270833 -.00035413  00000+0 -10991-2 0  2583
2 69034  97.2852 111.7006 0001844  91.5734 149.1041 15.33460647    19

Отслеживайте STARLINK-37611 в реальном времени с AllMySat

Download on the App Store